Voltar ao catálogo

CZ-6A DEB

AtivoSSO
NORAD 55862·DEBRIS·🇨🇳 China

Lançado Nov 11, 2022 de Taiyuan Satellite Launch Center

Loading…

Próximas Passagens (próximas 24 horas)

TLE

AtualizadoSource: Space-Track

Época: Sep 14, 2026, 00:05 UTC

1 55862U 22151ZJ  26257.00352989  .00001580  00000-0  63314-3 0  9999
2 55862  98.7460 281.4677 0003884 121.8794 238.2766 14.29736549193065

Acompanhe CZ-6A DEB em tempo real com AllMySat

Download on the App Store